Flag for Pakistan Weather past 2 weeks in Islamabad, Pakistan

Now
64 °F

Clear.


Feels Like: 64 °F
Forecast: 56 / 89 °F
Wind: 5 mph from Southwest

Location: Islamabad Airport


UV Index: 5 (Moderate)

Visibility: 5 mi


Pressure: 29.98 "Hg

Humidity: 64%

Dew point: 52 °F

Location of IslamabadLocation

Historic Weather in Islamabad

°F

Islamabad temperature yesterday

Maximum temperature yesterday: 84 °F (at 3:00 PM)
Minimum temperature yesterday: 57 °F (at 4:00 AM)
Average temperature yesterday: 70 °F

Past Weeks' High & Low Weather Summary

 TemperatureHumidityPressure
High86 °F (Apr 10, 1:00 PM)94% (Apr 8, 6:00 AM)30.07 "Hg (Apr 8, 6:00 AM)
Low55 °F (Apr 9, 6:00 AM)16% (Apr 10, 2:00 PM)29.80 "Hg (Apr 12, 5:00 PM)
Average70 °F57%29.95 "Hg
* Reported Apr 6 2:00 AM — Apr 21 2:00 AM, Islamabad, Weather by CustomWeather, © 2014

Note: Actual official high and low records may vary slightly from our data, if they occured in-between our weather recording intervals... More about our weather records

Advertising

Historic Weather Conditions — Data for Previous 24 hours

 ConditionsComfort  
Time TempWeatherWind HumidityBarometerVisibility
2:00 AM
Apr 21
64 °FClear.5 mph64%29.98 "Hg5 mi
1:00 AM64 °FPassing clouds.No wind73%29.98 "Hg5 mi
12:00 AM70 °FPassing clouds.No wind60%29.98 "Hg5 mi
11:00 PM
Apr 20
70 °FPassing clouds.9 mph60%29.98 "Hg5 mi
9:00 PM73 °FPassing clouds.14 mph53%30.01 "HgN/A
8:00 PM73 °FPassing clouds.14 mph47%30.01 "HgN/A
7:00 PM75 °FPassing clouds.16 mph41%30.01 "HgN/A
6:00 PM79 °FScattered clouds.7 mph37%29.98 "HgN/A
5:00 PM82 °FScattered clouds.9 mph35%29.98 "HgN/A
4:00 PM84 °FScattered clouds.9 mph33%29.98 "HgN/A
3:00 PM84 °FScattered clouds.5 mph33%29.98 "HgN/A
1:00 PM81 °FPassing clouds.9 mph39%30.04 "HgN/A
12:00 PM81 °FPassing clouds.7 mph42%30.04 "HgN/A
11:00 AM77 °FSunny.5 mph44%30.07 "Hg10 mi
10:00 AM73 °FSunny.5 mph50%30.07 "Hg10 mi
9:00 AM70 °FScattered clouds.No wind53%30.07 "Hg5 mi
8:00 AM66 °FScattered clouds.No wind52%30.04 "Hg5 mi
7:00 AM61 °FScattered clouds.No wind72%30.04 "Hg5 mi
6:00 AM59 °FPassing clouds.7 mph77%30.01 "Hg5 mi
5:00 AM57 °FPassing clouds.12 mph82%30.01 "Hg5 mi
4:00 AM57 °FPassing clouds.5 mph82%30.01 "Hg5 mi
3:00 AM59 °FPassing clouds.5 mph77%30.01 "Hg5 mi
Weather by CustomWeather, © 2014

See weather overview